Weather History for KPOF - August, 2012

Change the Weather History Date:

Sunday, August 26, 2012

  Actual Average Record
Temperature  
Mean Temperature 80 °F -  
Max Temperature 91 °F 89 °F 107 °F (1943)
Min Temperature 69 °F 66 °F 50 °F (1927)
Cooling Degree Days 15    
Growing Degree Days 30 (Base 50)    
Moisture  
Dew Point 70 °F    
Average Humidity 79    
Maximum Humidity 94    
Minimum Humidity 53    
Precipitation  
Precipitation 0.00 in - - ()
Sea Level Pressure  
Sea Level Pressure 30.03 in    
Wind  
Wind Speed 5 mph (South)    
Max Wind Speed 13 mph    
Max Gust Speed 20 mph    
Visibility 9 miles    
Events      
Averages and records for this station are not official NWS values.
T = Trace of Precipitation, MM = Missing Value Source: NWS Daily Summary

Daily Weather History Graph

Daily Weather History Graph

Search for Another Location

Airport or City:

Trip Planner

Search our weather history database for the weather conditions in past years. The results will help you decide how hot, cold, wet, or windy it might be!

Date:

Astronomy

Aug. 26, 2012 Rise Set
Actual Time 6:27 AM CDT 7:37 PM CDT
Civil Twilight 6:01 AM CDT 8:04 PM CDT
Nautical Twilight 5:29 AM CDT 8:35 PM CDT
Astronomical Twilight 4:55 AM CDT 9:08 PM CDT
Moon 4:02 PM CDT (8/26) 1:14 AM CDT (8/26)
Length of Visible Light 14h 02m
Length of Day
13h 09m
Waxing Gibbous, 73% of the Moon is Illuminated
Aug 26
Waxing Gibbous
Aug 31
Full
Sep 8
Last Quarter
Sep 15
New
Sep 22
First Quarter

Hourly Weather History & Observations

Time (CDT) Temp. Heat Index Dew Point Humidity Pressure Visibility Wind Dir Wind Speed Gust Speed Precip Events Conditions
12:53 AM 71.1 °F - 68.0 °F 90% 30.01 in 10.0 mi SSE 3.5 mph - N/A   Clear
1:53 AM 71.1 °F - 68.0 °F 90% 30.01 in 10.0 mi South 4.6 mph - N/A   Clear
2:53 AM 71.1 °F - 68.0 °F 90% 30.02 in 10.0 mi Calm Calm - N/A   Clear
3:53 AM 70.0 °F - 68.0 °F 93% 30.02 in 10.0 mi SSE 3.5 mph - N/A   Clear
4:19 AM 71.6 °F - 68.0 °F 88% 30.03 in 10.0 mi Calm Calm - N/A   Mostly Cloudy
4:53 AM 70.0 °F - 68.0 °F 93% 30.04 in 9.0 mi Calm Calm - N/A   Mostly Cloudy
5:21 AM 69.8 °F - 66.2 °F 88% 30.04 in 8.0 mi Calm Calm - N/A   Scattered Clouds
5:53 AM 69.1 °F - 66.9 °F 93% 30.04 in 8.0 mi SSE 3.5 mph - N/A   Clear
6:26 AM 69.8 °F - 66.2 °F 88% 30.06 in 8.0 mi SSE 4.6 mph - N/A   Mostly Cloudy
6:41 AM 69.8 °F - 68.0 °F 94% 30.06 in 7.0 mi SSE 4.6 mph - N/A   Mostly Cloudy
6:53 AM 70.0 °F - 68.0 °F 93% 30.06 in 7.0 mi South 3.5 mph - N/A   Partly Cloudy
7:38 AM 71.6 °F - 69.8 °F 94% 30.08 in 8.0 mi South 5.8 mph - N/A   Mostly Cloudy
7:53 AM 72.0 °F - 69.1 °F 91% 30.08 in 8.0 mi South 5.8 mph - N/A   Overcast
8:53 AM 73.0 °F - 70.0 °F 90% 30.08 in 9.0 mi South 8.1 mph - N/A   Overcast
9:17 AM 73.4 °F - 69.8 °F 88% 30.09 in 9.0 mi South 6.9 mph - N/A   Overcast
9:53 AM 75.0 °F - 71.1 °F 87% 30.09 in 9.0 mi South 9.2 mph - N/A   Overcast
10:50 AM 77.0 °F - 71.6 °F 83% 30.09 in 9.0 mi South 10.4 mph - N/A   Overcast
10:53 AM 77.0 °F - 71.1 °F 82% 30.08 in 9.0 mi South 11.5 mph - N/A   Overcast
11:31 AM 78.8 °F - 71.6 °F 78% 30.09 in 10.0 mi SSW 9.2 mph - N/A   Overcast
11:53 AM 81.0 °F 85.2 °F 72.0 °F 74% 30.07 in 10.0 mi South 10.4 mph 16.1 mph N/A   Overcast
12:24 PM 84.2 °F 89.6 °F 71.6 °F 66% 30.07 in 10.0 mi SSW 10.4 mph - N/A   Overcast
12:51 PM 84.2 °F 89.6 °F 71.6 °F 66% 30.06 in 10.0 mi South 9.2 mph - N/A   Overcast
12:53 PM 84.9 °F 90.7 °F 72.0 °F 65% 30.05 in 10.0 mi South 9.2 mph - N/A   Mostly Cloudy
1:05 PM 84.2 °F 90.9 °F 73.4 °F 70% 30.06 in 10.0 mi SSW 11.5 mph 18.4 mph N/A   Mostly Cloudy
1:36 PM 86.0 °F 91.8 °F 71.6 °F 62% 30.05 in 10.0 mi South 12.7 mph 19.6 mph N/A   Mostly Cloudy
2:53 PM 89.1 °F 96.0 °F 72.0 °F 57% 30.00 in 10.0 mi SSW 11.5 mph 19.6 mph N/A   Mostly Cloudy
3:53 PM 91.0 °F 98.2 °F 72.0 °F 53% 29.98 in 10.0 mi South 10.4 mph - N/A   Scattered Clouds
4:53 PM 88.0 °F 93.8 °F 71.1 °F 57% 29.96 in 10.0 mi South 8.1 mph - N/A   Scattered Clouds
5:53 PM 89.1 °F 94.1 °F 70.0 °F 53% 29.95 in 10.0 mi South 8.1 mph - N/A   Partly Cloudy
6:53 PM 86.0 °F 90.7 °F 70.0 °F 59% 29.95 in 10.0 mi SSW 6.9 mph - N/A   Clear
7:53 PM 82.0 °F 86.3 °F 71.1 °F 69% 29.96 in 10.0 mi South 3.5 mph - N/A   Partly Cloudy
8:53 PM 78.1 °F - 72.0 °F 81% 29.98 in 10.0 mi SE 4.6 mph - N/A   Clear
9:53 PM 79.0 °F - 71.1 °F 77% 29.99 in 10.0 mi SSE 4.6 mph - N/A   Clear
10:53 PM 78.1 °F - 70.0 °F 76% 30.00 in 10.0 mi South 3.5 mph - N/A   Partly Cloudy
11:53 PM 77.0 °F - 70.0 °F 79% 29.99 in 10.0 mi South 4.6 mph - N/A   Clear